Weather History for Wautoma, WI

Change the Weather History Date:

Thursday, September 5, 2013

  Actual Average (KPCZ) Record (KPCZ)
Temperature  
Mean Temperature 65 °F -  
Max Temperature 77 °F 76 °F 93 °F (1990)
Min Temperature 54 °F 52 °F 38 °F (1957)
Growing Degree Days 15 (Base 50)    
Moisture  
Dew Point 53 °F    
Average Humidity 72    
Maximum Humidity 100    
Minimum Humidity 38    
Precipitation  
Precipitation 0.00 in - - ()
Sea Level Pressure  
Sea Level Pressure 30.24 in    
Wind  
Wind Speed 5 mph (ENE)    
Max Wind Speed 9 mph    
Max Gust Speed -    
Visibility 10 miles    
Events      
Averages and records for this station are not official NWS values.
T = Trace of Precipitation, MM = Missing Value Source: NWS Daily Summary

Daily Weather History Graph

Daily Weather History Graph

Search for Another Location

Airport:

Trip Planner

Search our weather history database for the weather conditions in past years. The results will help you decide how hot, cold, wet, or windy it might be!

Date:

Astronomy

Sep. 05, 2013 Rise Set
Actual Time 6:25 AM CDT 7:25 PM CDT
Civil Twilight 5:55 AM CDT 7:54 PM CDT
Nautical Twilight 5:20 AM CDT 8:30 PM CDT
Astronomical Twilight 4:43 AM CDT 9:06 PM CDT
Moon 6:39 AM CDT (9/5) 7:13 PM CDT (9/5)
Length of Visible Light 13h 59m
Length of Day
13h 00m
Waxing Crescent, 0% of the Moon is Illuminated
Sep 5
Waxing Crescent
Sep 12
First Quarter
Sep 19
Full
Sep 26
Last Quarter
Oct 4
New

Hourly Weather History & Observations

Time (CDT) Temp. Dew Point Humidity Pressure Visibility Wind Dir Wind Speed Gust Speed Precip Events Conditions
12:56 AM 61.0 °F - N/A% 30.16 in 10.0 mi NNE 3.5 mph - N/A   Clear
1:56 AM 61.0 °F - N/A% 30.17 in 10.0 mi Calm Calm - N/A   Scattered Clouds
2:34 AM 60.8 °F - N/A% 30.21 in 10.0 mi ENE 4.6 mph - N/A   Overcast
2:48 AM 62.6 °F - N/A% 30.21 in 10.0 mi NE 5.8 mph - N/A   Overcast
2:56 AM 61.9 °F - N/A% 30.19 in 10.0 mi NE 6.9 mph - N/A   Overcast
3:31 AM 62.6 °F 62.6 °F 100% 30.21 in 10.0 mi ENE 5.8 mph - N/A   Overcast
3:48 AM 62.6 °F 62.6 °F 100% 30.22 in 10.0 mi ENE 5.8 mph - N/A   Overcast
3:56 AM 62.6 °F 62.6 °F 100% 30.22 in 10.0 mi ENE 6.9 mph - N/A   Overcast
4:04 AM 62.6 °F 62.6 °F 100% 30.22 in 10.0 mi Variable 5.8 mph - N/A   Overcast
4:33 AM 60.8 °F 60.8 °F 100% 30.23 in 10.0 mi East 5.8 mph - N/A   Scattered Clouds
4:56 AM 59.0 °F 59.0 °F 100% 30.22 in 10.0 mi Variable 5.8 mph - N/A   Mostly Cloudy
5:09 AM 57.2 °F 57.2 °F 100% 30.24 in 10.0 mi ENE 5.8 mph - N/A   Scattered Clouds
5:46 AM 57.2 °F 57.2 °F 100% 30.26 in 10.0 mi NE 4.6 mph - N/A   Mostly Cloudy
5:56 AM 55.9 °F 55.9 °F 100% 30.25 in 10.0 mi NE 3.5 mph - N/A   Overcast
6:56 AM 56.8 °F 50.0 °F 78% 30.27 in 10.0 mi NE 6.9 mph - N/A   Overcast
7:45 AM 57.2 °F 48.2 °F 72% 30.30 in 10.0 mi NE 5.8 mph - N/A   Scattered Clouds
7:56 AM 56.8 °F 47.8 °F 72% 30.29 in 10.0 mi NE 4.6 mph - N/A   Partly Cloudy
8:11 AM 57.2 °F 48.2 °F 72% 30.30 in 10.0 mi ENE 6.9 mph - N/A   Mostly Cloudy
8:56 AM 59.9 °F 50.0 °F 70% 30.30 in 10.0 mi East 6.9 mph - N/A   Overcast
9:56 AM 63.9 °F 50.0 °F 61% 30.30 in 10.0 mi Variable 6.9 mph - N/A   Overcast
10:26 AM 64.4 °F 51.8 °F 64% 30.31 in 10.0 mi Variable 6.9 mph - N/A   Scattered Clouds
10:56 AM 66.9 °F 50.0 °F 54% 30.29 in 10.0 mi ENE 9.2 mph - N/A   Clear
11:56 AM 70.0 °F 50.9 °F 51% 30.29 in 10.0 mi ESE 8.1 mph - N/A   Clear
12:56 PM 70.9 °F 50.0 °F 48% 30.28 in 10.0 mi East 6.9 mph - N/A   Clear
1:56 PM 73.9 °F 50.0 °F 43% 30.25 in 10.0 mi South 6.9 mph - N/A   Clear
2:56 PM 74.8 °F 48.9 °F 40% 30.24 in 10.0 mi Variable 5.8 mph - N/A   Clear
3:56 PM 75.9 °F 48.9 °F 38% 30.22 in 10.0 mi Variable 4.6 mph - N/A   Clear
4:56 PM 75.9 °F 52.0 °F 43% 30.22 in 10.0 mi NE 4.6 mph - N/A   Clear
5:56 PM 73.9 °F 52.0 °F 46% 30.21 in 10.0 mi East 6.9 mph - N/A   Clear
6:56 PM 70.0 °F 50.9 °F 51% 30.21 in 10.0 mi East 8.1 mph - N/A   Clear
7:56 PM 65.8 °F 48.9 °F 54% 30.22 in 10.0 mi East 4.6 mph - N/A   Clear
8:56 PM 63.9 °F 50.9 °F 63% 30.23 in 10.0 mi East 4.6 mph - N/A   Clear
9:56 PM 61.0 °F 52.9 °F 75% 30.23 in 10.0 mi SE 5.8 mph - N/A   Clear
10:56 PM 57.9 °F 50.0 °F 75% 30.24 in 10.0 mi SSE 4.6 mph - N/A   Clear
11:56 PM 54.9 °F 50.0 °F 84% 30.24 in 10.0 mi Calm Calm - N/A   Clear